Cairo, Egypt

1:59 PM EET on January 20, 2018 (GMT +0200)
Cairo International Airport

Weather History for HECA - November, 2013

Change the Weather History Date:

Sunday, November 3, 2013

  Actual Average Record
Temperature  
Mean Temperature 72 °F -  
Max Temperature 80 °F 73 °F 91 °F (2007)
Min Temperature 64 °F 56 °F 57 °F (2005)
Cooling Degree Days 7    
Growing Degree Days 22 (Base 50)    
Moisture  
Dew Point 60 °F    
Average Humidity 73    
Maximum Humidity 100    
Minimum Humidity 39    
Precipitation  
Precipitation 0.00 in 0.00 in - ()
Sea Level Pressure  
Sea Level Pressure 30.03 in    
Wind  
Wind Speed 5 mph ()    
Max Wind Speed 15 mph    
Max Gust Speed -    
Visibility 3.0 miles    
Events Fog    
Averages and records for this station are not official NWS values.
T = Trace of Precipitation, MM = Missing Value Source: Averaged Metar Reports

Daily Weather History Graph

Daily Weather History Graph

Search for Another Location

Airport or City:

Trip Planner

Search our weather history database for the weather conditions in past years. The results will help you decide how hot, cold, wet, or windy it might be!

Date:

Astronomy

Nov. 03, 2013 Rise Set
Actual Time 6:09 AM EET 5:05 PM EET
Civil Twilight 5:45 AM EET 5:30 PM EET
Nautical Twilight 5:16 AM EET 5:58 PM EET
Astronomical Twilight 4:48 AM EET 6:26 PM EET
Moon 5:51 AM EET (11/3) 5:06 PM EET (11/3)
Length of Visible Light 11h 45m
Length of Day
10h 55m
Waning Crescent, 0% of the Moon is Illuminated
Nov 3
Waning Crescent
Nov 3
New
Nov 10
First Quarter
Nov 17
Full
Nov 25
Last Quarter

Hourly Weather History & Observations

Time (EET) Temp. Heat Index Dew Point Humidity Pressure Visibility Wind Dir Wind Speed Gust Speed Precip Events Conditions
12:00 AM 68.0 °F - 60.8 °F 78% 30.04 in - North 3.5 mph - N/A   Clear
12:30 AM 68.0 °F - 62.6 °F 83% 30.04 in 3.7 mi North 3.5 mph - N/A   Unknown
1:00 AM 68.0 °F - 62.6 °F 83% 30.04 in 2.5 mi North 5.8 mph - N/A   Mist
1:30 AM 66.2 °F - 62.6 °F 88% 30.04 in 1.9 mi Calm Calm - N/A   Mist
2:00 AM 66.2 °F - 62.6 °F 88% 30.04 in 1.2 mi North 2.3 mph - N/A   Mist
2:30 AM 66.2 °F - 62.6 °F 88% 30.04 in 1.2 mi North 2.3 mph - N/A   Mist
3:00 AM 66.2 °F - 62.6 °F 88% 30.04 in 0.6 mi North 3.5 mph - N/A   Mist
3:30 AM 66.2 °F - 62.6 °F 88% 30.04 in 0.5 mi North 3.5 mph - N/A Fog Fog
4:00 AM 66.2 °F - 62.6 °F 88% 30.04 in 0.5 mi Calm Calm - N/A Fog Fog
4:30 AM 66.2 °F - 62.6 °F 88% 30.04 in 0.5 mi Calm Calm - N/A Fog Fog
5:00 AM 64.4 °F - 62.6 °F 94% 30.04 in 0.5 mi Calm Calm - N/A Fog Fog
5:30 AM 64.4 °F - 64.4 °F 100% 30.04 in 0.5 mi Calm Calm - N/A Fog Fog
6:00 AM 64.4 °F - 64.4 °F 100% 30.04 in 0.5 mi Calm Calm - N/A Fog Fog
6:30 AM 64.4 °F - 64.4 °F 100% 30.04 in 0.5 mi Calm Calm - N/A Fog Fog
7:00 AM 64.4 °F - 64.4 °F 100% 30.04 in 0.5 mi Calm Calm - N/A Fog Fog
7:30 AM 64.4 °F - 64.4 °F 100% 30.04 in 0.5 mi Calm Calm - N/A Fog Fog
8:00 AM 64.4 °F - 64.4 °F 100% 30.06 in 0.5 mi Calm Calm - N/A Fog Fog
8:30 AM 66.2 °F - 66.2 °F 100% 30.06 in 0.5 mi Calm Calm - N/A Fog Fog
9:00 AM 68.0 °F - 66.2 °F 94% 30.06 in 0.5 mi Calm Calm - N/A Fog Fog
9:30 AM 69.8 °F - 64.4 °F 83% 30.06 in 0.9 mi NE 9.2 mph - N/A   Scattered Clouds
10:00 AM 71.6 °F - 64.4 °F 78% 30.06 in 2.5 mi NE 8.1 mph - N/A   Scattered Clouds
10:30 AM 73.4 °F - 60.8 °F 65% 30.04 in 3.7 mi NE 8.1 mph - N/A   Scattered Clouds
11:00 AM 73.4 °F - 59.0 °F 61% 30.04 in 3.7 mi NE 10.4 mph - N/A   Mostly Cloudy
11:30 AM 77.0 °F - 59.0 °F 54% 30.04 in 6.2 mi NE 10.4 mph - N/A   Mostly Cloudy
12:00 PM 77.0 °F - 55.4 °F 47% 30.04 in 6.2 mi NE 13.8 mph - N/A   Mostly Cloudy
12:30 PM 77.0 °F - 55.4 °F 47% 30.01 in 6.2 mi NE 15.0 mph - N/A   Mostly Cloudy
1:00 PM 77.0 °F - 55.4 °F 47% 30.01 in 6.2 mi NNE 13.8 mph - N/A   Mostly Cloudy
1:30 PM 78.8 °F - 53.6 °F 42% 29.98 in 6.2 mi NE 12.7 mph - N/A   Mostly Cloudy
2:00 PM 80.6 °F 80.3 °F 53.6 °F 39% 29.98 in 6.2 mi NNE 12.7 mph - N/A   Scattered Clouds
2:30 PM 80.6 °F 80.3 °F 53.6 °F 39% 29.98 in 6.2 mi NNE 12.7 mph - N/A   Scattered Clouds
3:00 PM 78.8 °F - 53.6 °F 42% 29.98 in 6.2 mi North 12.7 mph - N/A   Scattered Clouds
3:30 PM 78.8 °F - 53.6 °F 42% 29.98 in 6.2 mi North 12.7 mph - N/A   Scattered Clouds
4:00 PM 78.8 °F - 55.4 °F 44% 29.98 in 6.2 mi North 11.5 mph - N/A   Scattered Clouds
4:30 PM 78.8 °F - 55.4 °F 44% 30.01 in 6.2 mi NNE 12.7 mph - N/A   Scattered Clouds
5:00 PM 77.0 °F - 53.6 °F 44% 30.01 in 6.2 mi NNE 12.7 mph - N/A   Scattered Clouds
6:00 PM 75.2 °F - 59.0 °F 57% 30.01 in - NNE 15.0 mph - N/A   Clear
6:30 PM 73.4 °F - 60.8 °F 65% 30.01 in - NNE 13.8 mph - N/A   Clear
7:00 PM 73.4 °F - 60.8 °F 65% 30.04 in - NNE 13.8 mph - N/A   Clear
7:30 PM 71.6 °F - 60.8 °F 69% 30.04 in - NNE 13.8 mph - N/A   Clear
8:00 PM 71.6 °F - 59.0 °F 64% 30.04 in - NNE 12.7 mph - N/A   Clear
8:30 PM 69.8 °F - 60.8 °F 73% 30.06 in - NNE 12.7 mph - N/A   Clear
9:00 PM 69.8 °F - 60.8 °F 73% 30.06 in - NNE 12.7 mph - N/A   Clear
9:30 PM 69.8 °F - 60.8 °F 73% 30.06 in - NNE 12.7 mph - N/A   Clear
10:00 PM 69.8 °F - 60.8 °F 73% 30.06 in - NE 9.2 mph - N/A   Clear
10:30 PM 68.0 °F - 60.8 °F 78% 30.06 in - NE 9.2 mph - N/A   Clear
11:00 PM 68.0 °F - 60.8 °F 78% 30.06 in - NNE 8.1 mph - N/A   Clear
11:30 PM 68.0 °F - 60.8 °F 78% 30.06 in - NNE 6.9 mph - N/A   Clear